LOT24Y LYBE-EPWA

Flight info

Callsign LOT24Y
Flight time N/A
Altitude 38000
Route TISAK3L TISAK DCT PARAK DCT PITOK DCT ORTEB DCT KONZI DCT LOGDA LOGDA6U
Aircraft B738/M-SDE2E3FGHIRWXY/LB1

Departure

Time 2026-04-30 21:40
Airport Belgrade Nikola Tesla Airport (LYBE)

Arrival

Time N/A
Airport Warsaw Chopin Airport (EPWA)
Time Latitude Longitude Altitude Speed Heading
2026-04-30 20:34 44.81699 20.29072 328 ft 0 kts 296°
2026-04-30 20:38 44.81698 20.29073 325 ft 0 kts 293°
2026-04-30 21:27 44.81693 20.29089 324 ft 4 kts 289°
2026-04-30 21:27 44.81686 20.29125 328 ft 4 kts 290°
2026-04-30 21:27 44.81676 20.29153 324 ft 4 kts 327°
2026-04-30 21:28 44.81639 20.29126 324 ft 4 kts 40°
2026-04-30 21:28 44.81622 20.29109 326 ft 0 kts 28°
2026-04-30 21:31 44.81664 20.29144 324 ft 8 kts 31°
2026-04-30 21:31 44.81766 20.29234 327 ft 8 kts 33°
2026-04-30 21:32 44.81863 20.29318 328 ft 8 kts 32°
2026-04-30 21:32 44.81909 20.29358 329 ft 8 kts 32°
2026-04-30 21:32 44.81954 20.29397 325 ft 7 kts 32°
2026-04-30 21:32 44.81997 20.29435 327 ft 7 kts 32°
2026-04-30 21:33 44.82039 20.29472 327 ft 7 kts 32°
2026-04-30 21:33 44.82111 20.29555 327 ft 7 kts 72°
2026-04-30 21:33 44.82103 20.29619 327 ft 7 kts 118°
2026-04-30 21:34 44.82087 20.29656 327 ft 7 kts 121°
2026-04-30 21:34 44.82030 20.29787 330 ft 11 kts 122°
2026-04-30 21:34 44.81984 20.29891 327 ft 14 kts 122°
2026-04-30 21:35 44.81933 20.30006 328 ft 13 kts 122°
2026-04-30 21:35 44.81885 20.30116 329 ft 13 kts 122°
2026-04-30 21:35 44.81838 20.30222 332 ft 13 kts 122°
2026-04-30 21:35 44.81792 20.30325 331 ft 12 kts 122°
2026-04-30 21:36 44.81744 20.30433 329 ft 14 kts 122°
2026-04-30 21:36 44.81688 20.30562 332 ft 17 kts 122°
2026-04-30 21:37 44.81477 20.31035 334 ft 19 kts 122°
2026-04-30 21:37 44.81408 20.31193 336 ft 19 kts 122°
2026-04-30 21:37 44.81340 20.31346 336 ft 18 kts 122°
2026-04-30 21:37 44.81273 20.31491 334 ft 17 kts 122°
2026-04-30 21:38 44.81211 20.31634 338 ft 17 kts 122°
2026-04-30 21:38 44.81149 20.31770 337 ft 16 kts 125°
2026-04-30 21:38 44.81091 20.31902 338 ft 16 kts 122°
2026-04-30 21:38 44.81035 20.32028 336 ft 15 kts 122°
2026-04-30 21:39 44.80994 20.32157 341 ft 14 kts 94°
2026-04-30 21:39 44.81039 20.32271 338 ft 14 kts 33°
2026-04-30 21:39 44.81128 20.32306 341 ft 13 kts 359°
2026-04-30 21:39 44.81217 20.32299 346 ft 13 kts 344°
2026-04-30 21:40 44.81283 20.32189 342 ft 30 kts 300°
2026-04-30 21:40 44.81571 20.31537 336 ft 124 kts 302°
2026-04-30 21:40 44.82177 20.30213 476 ft 190 kts 304°
2026-04-30 21:40 44.82923 20.28522 1239 ft 211 kts 304°
2026-04-30 21:41 44.83696 20.26734 2288 ft 222 kts 307°
2026-04-30 21:41 44.84542 20.24801 3126 ft 238 kts 306°
2026-04-30 21:41 44.85400 20.22793 4289 ft 236 kts 305°
2026-04-30 21:41 44.86261 20.20789 5327 ft 243 kts 304°
2026-04-30 21:42 44.87192 20.18649 5859 ft 271 kts 304°
2026-04-30 21:42 44.88252 20.16236 6033 ft 309 kts 304°
2026-04-30 21:42 44.89401 20.13625 5995 ft 310 kts 304°
2026-04-30 21:42 44.90513 20.11098 6014 ft 296 kts 304°
2026-04-30 21:43 44.91575 20.08692 6012 ft 282 kts 304°
2026-04-30 21:43 44.92576 20.06430 6009 ft 269 kts 304°
2026-04-30 21:43 44.93547 20.04240 6002 ft 257 kts 304°
2026-04-30 21:43 44.94478 20.02141 6008 ft 249 kts 304°
2026-04-30 21:44 44.95397 20.00074 6013 ft 248 kts 304°
2026-04-30 21:44 44.96317 19.98001 6031 ft 249 kts 304°
2026-04-30 21:44 44.97241 19.95919 6031 ft 251 kts 304°
2026-04-30 21:44 44.98169 19.93822 6035 ft 252 kts 304°
2026-04-30 21:45 44.99142 19.91766 6009 ft 251 kts 315°
2026-04-30 21:45 45.00572 19.90465 6022 ft 243 kts 346°
2026-04-30 21:45 45.02250 19.90357 6089 ft 248 kts 13°
2026-04-30 21:45 45.03901 19.91260 6609 ft 260 kts 28°
2026-04-30 21:46 45.05499 19.92513 7438 ft 264 kts 31°
2026-04-30 21:46 45.07086 19.93834 8359 ft 265 kts 31°
2026-04-30 21:46 45.08679 19.95167 9228 ft 268 kts 30°
2026-04-30 21:46 45.10294 19.96513 10101 ft 271 kts 30°
2026-04-30 21:47 45.11928 19.97865 10904 ft 273 kts 30°
2026-04-30 21:47 45.13579 19.99224 11699 ft 275 kts 29°
2026-04-30 21:47 45.15245 20.00592 12493 ft 278 kts 29°
2026-04-30 21:47 45.16929 20.01971 13296 ft 281 kts 29°
2026-04-30 21:48 45.18611 20.03348 14087 ft 284 kts 29°
2026-04-30 21:48 45.20330 20.04753 14779 ft 287 kts 29°
2026-04-30 21:48 45.22072 20.06178 15449 ft 291 kts 29°
2026-04-30 21:48 45.23836 20.07621 16128 ft 295 kts 29°
2026-04-30 21:49 45.25624 20.09084 16816 ft 298 kts 29°
2026-04-30 21:49 45.27426 20.10560 17500 ft 302 kts 29°
2026-04-30 21:49 45.29260 20.12062 18183 ft 305 kts 29°
2026-04-30 21:49 45.31109 20.13579 18825 ft 309 kts 29°
2026-04-30 21:50 45.32979 20.15113 19415 ft 312 kts 29°
2026-04-30 21:50 45.34870 20.16667 20027 ft 314 kts 28°
2026-04-30 21:50 45.36770 20.18228 20634 ft 317 kts 28°
2026-04-30 21:50 45.38692 20.19808 21225 ft 320 kts 28°
2026-04-30 21:51 45.40632 20.21391 21809 ft 323 kts 25°
2026-04-30 21:51 45.42768 20.22373 22325 ft 326 kts
2026-04-30 21:51 45.45095 20.22331 22441 ft 343 kts 354°
2026-04-30 21:51 45.47521 20.21923 22566 ft 358 kts 353°
2026-04-30 21:52 45.50044 20.21441 22685 ft 373 kts 353°
2026-04-30 21:52 45.52621 20.20940 22962 ft 382 kts 353°
2026-04-30 21:52 45.55266 20.20434 23484 ft 385 kts 353°
2026-04-30 21:52 45.57928 20.19937 24022 ft 386 kts 353°
2026-04-30 21:53 45.60602 20.19447 24453 ft 389 kts 353°
2026-04-30 21:53 45.63297 20.18960 24878 ft 391 kts 353°
2026-04-30 21:53 45.66007 20.18473 25295 ft 393 kts 353°
2026-04-30 21:53 45.68732 20.17986 25701 ft 396 kts 353°
2026-04-30 21:54 45.71476 20.17496 26098 ft 398 kts 353°
2026-04-30 21:54 45.74241 20.17002 26497 ft 401 kts 353°
2026-04-30 21:54 45.77010 20.16507 26884 ft 403 kts 353°
2026-04-30 21:54 45.79805 20.16006 27257 ft 405 kts 353°
2026-04-30 21:55 45.82618 20.15502 27623 ft 408 kts 353°
2026-04-30 21:55 45.85446 20.14994 27993 ft 410 kts 353°
2026-04-30 21:55 45.88278 20.14485 28361 ft 412 kts 353°
2026-04-30 21:55 45.91138 20.13970 28693 ft 415 kts 353°
2026-04-30 21:56 45.94006 20.13454 29032 ft 417 kts 354°
2026-04-30 21:56 45.96893 20.12933 29370 ft 419 kts 354°
2026-04-30 21:56 45.99796 20.12409 29685 ft 421 kts 354°
2026-04-30 21:56 46.02713 20.11882 30003 ft 424 kts 354°
2026-04-30 21:57 46.05646 20.11351 30319 ft 426 kts 354°
2026-04-30 21:57 46.08593 20.10817 30581 ft 428 kts 354°
2026-04-30 21:57 46.11555 20.10280 30831 ft 430 kts 354°
2026-04-30 21:57 46.14534 20.09741 31068 ft 432 kts 354°
2026-04-30 21:58 46.17531 20.09464 31341 ft 432 kts
2026-04-30 21:58 46.20520 20.09747 31702 ft 430 kts
2026-04-30 21:58 46.23493 20.10133 32089 ft 428 kts
2026-04-30 21:58 46.26457 20.10542 32411 ft 428 kts
2026-04-30 21:59 46.29422 20.10950 32706 ft 428 kts
2026-04-30 21:59 46.32390 20.11348 33054 ft 427 kts
2026-04-30 21:59 46.35311 20.11729 33408 ft 426 kts
2026-04-30 22:00 46.41222 20.12479 34018 ft 426 kts
2026-04-30 22:00 46.47130 20.13218 34589 ft 425 kts
2026-04-30 22:00 46.50078 20.13586 34800 ft 425 kts
2026-04-30 22:01 46.53028 20.13959 35020 ft 425 kts
2026-04-30 22:01 46.55979 20.14328 35252 ft 425 kts
2026-04-30 22:01 46.58933 20.14697 35458 ft 426 kts
2026-04-30 22:01 46.61887 20.15066 35682 ft 426 kts
2026-04-30 22:02 46.64841 20.15436 35879 ft 427 kts
2026-04-30 22:02 46.67805 20.15808 36095 ft 427 kts
2026-04-30 22:02 46.70759 20.16180 36319 ft 426 kts
2026-04-30 22:02 46.73684 20.16548 36533 ft 426 kts
2026-04-30 22:03 46.76644 20.16922 36721 ft 427 kts
2026-04-30 22:03 46.79607 20.17296 36931 ft 427 kts
2026-04-30 22:03 46.82571 20.17671 37154 ft 426 kts
2026-04-30 22:03 46.85520 20.18045 37352 ft 426 kts
2026-04-30 22:04 46.88483 20.18421 37524 ft 427 kts
2026-04-30 22:04 46.91449 20.18797 37690 ft 428 kts
2026-04-30 22:04 46.97340 20.19546 38088 ft 427 kts
2026-04-30 22:05 47.00311 20.19924 38235 ft 428 kts
2026-04-30 22:05 47.03272 20.20302 38361 ft 428 kts
2026-04-30 22:05 47.06245 20.20681 38364 ft 429 kts
2026-04-30 22:06 47.12192 20.21441 38375 ft 428 kts
2026-04-30 22:06 47.21075 20.22580 38373 ft 426 kts
2026-04-30 22:07 47.26971 20.23338 38373 ft 425 kts
2026-04-30 22:07 47.32868 20.24098 38369 ft 424 kts
2026-04-30 22:08 47.38749 20.24857 38365 ft 424 kts
2026-04-30 22:08 47.44623 20.25617 38366 ft 424 kts
2026-04-30 22:09 47.50508 20.26381 38361 ft 424 kts
2026-04-30 22:09 47.56361 20.27142 38362 ft 424 kts
2026-04-30 22:10 47.62253 20.27910 38363 ft 424 kts
2026-04-30 22:10 47.68142 20.28679 38362 ft 425 kts
2026-04-30 22:11 47.76990 20.29837 38360 ft 425 kts
2026-04-30 22:12 47.82848 20.30607 38363 ft 425 kts
2026-04-30 22:12 47.88750 20.31384 38362 ft 425 kts
2026-04-30 22:13 47.94658 20.32163 38366 ft 425 kts
2026-04-30 22:13 48.00556 20.32943 38363 ft 425 kts
2026-04-30 22:14 48.06450 20.33724 38363 ft 424 kts
2026-04-30 22:14 48.12019 20.34464 38365 ft 424 kts
2026-04-30 22:15 48.17852 20.35241 38365 ft 423 kts
2026-04-30 22:15 48.23707 20.36023 38366 ft 422 kts
2026-04-30 22:16 48.29547 20.36804 38355 ft 421 kts
2026-04-30 22:17 48.40214 20.38070 38366 ft 419 kts
2026-04-30 22:17 48.48922 20.38978 38371 ft 418 kts
2026-04-30 22:18 48.57608 20.39911 38376 ft 418 kts
2026-04-30 22:19 48.66318 20.40857 38378 ft 418 kts
2026-04-30 22:20 48.75037 20.41810 38377 ft 419 kts
2026-04-30 22:20 48.83760 20.42765 38377 ft 420 kts
2026-04-30 22:21 48.89601 20.43407 38365 ft 421 kts
2026-04-30 22:21 48.95445 20.44050 38356 ft 421 kts
2026-04-30 22:22 49.01305 20.44697 38356 ft 421 kts
2026-04-30 22:22 49.07155 20.45344 38356 ft 421 kts
2026-04-30 22:23 49.12955 20.45987 38357 ft 420 kts
2026-04-30 22:23 49.18785 20.46635 38367 ft 419 kts
2026-04-30 22:24 49.24618 20.47284 38372 ft 419 kts
2026-04-30 22:24 49.30434 20.47934 38378 ft 418 kts
2026-04-30 22:25 49.36199 20.48579 38393 ft 417 kts
2026-04-30 22:25 49.41891 20.49217 38398 ft 417 kts
2026-04-30 22:26 49.50578 20.50195 38400 ft 416 kts
2026-04-30 22:27 49.56363 20.50848 38391 ft 416 kts
2026-04-30 22:27 49.65028 20.51828 38394 ft 416 kts
2026-04-30 22:28 49.73646 20.52807 38401 ft 415 kts
2026-04-30 22:29 49.85162 20.54121 38385 ft 414 kts
2026-04-30 22:31 50.05272 20.56431 38387 ft 413 kts
2026-04-30 22:32 50.13911 20.57401 37231 ft 413 kts
2026-04-30 22:32 50.19577 20.57971 36451 ft 402 kts
2026-04-30 22:33 50.27828 20.58808 35245 ft 389 kts
2026-04-30 22:33 50.33186 20.59360 34464 ft 382 kts
2026-04-30 22:34 50.41020 20.60171 33226 ft 369 kts
2026-04-30 22:35 50.46069 20.60695 32486 ft 359 kts
2026-04-30 22:36 50.55803 20.61711 31060 ft 342 kts 11°
2026-04-30 22:36 50.58128 20.61952 30795 ft 336 kts 11°
2026-04-30 22:37 50.64921 20.62653 29962 ft 317 kts 11°
2026-04-30 22:37 50.67102 20.62881 29662 ft 311 kts 11°
2026-04-30 22:37 50.71361 20.63328 29001 ft 303 kts 11°
2026-04-30 22:38 50.75515 20.63767 28293 ft 295 kts 11°
2026-04-30 22:38 50.79581 20.64198 27615 ft 291 kts 10°
2026-04-30 22:39 50.81576 20.64410 27275 ft 290 kts 10°
2026-04-30 22:39 50.87892 20.65093 26214 ft 311 kts
2026-04-30 22:40 50.94285 20.65760 25137 ft 303 kts
2026-04-30 22:41 51.00542 20.66422 24102 ft 298 kts
2026-04-30 22:41 51.04633 20.66856 23352 ft 295 kts
2026-04-30 22:42 51.12675 20.67712 21989 ft 284 kts
2026-04-30 22:43 51.16597 20.68132 21331 ft 281 kts
2026-04-30 22:43 51.20513 20.68553 20691 ft 284 kts
2026-04-30 22:44 51.24569 20.68991 20023 ft 298 kts
2026-04-30 22:45 51.32544 20.71504 18811 ft 289 kts 20°
2026-04-30 22:45 51.36329 20.73586 18239 ft 288 kts 19°
2026-04-30 22:46 51.40125 20.75639 17703 ft 288 kts 19°
2026-04-30 22:47 51.47785 20.79744 16657 ft 289 kts 19°
2026-04-30 22:47 51.51597 20.81795 16141 ft 288 kts 19°
2026-04-30 22:48 51.55403 20.83848 15621 ft 288 kts 19°
2026-04-30 22:49 51.61057 20.86905 14857 ft 286 kts 18°
2026-04-30 22:49 51.66728 20.89978 14073 ft 286 kts 18°
2026-04-30 22:50 51.74139 20.93896 13000 ft 273 kts 18°
2026-04-30 22:51 51.77820 20.95095 12454 ft 275 kts 354°
2026-04-30 22:51 51.81362 20.92802 11970 ft 276 kts 335°
2026-04-30 22:52 51.83062 20.91361 11703 ft 276 kts 335°
2026-04-30 22:52 51.86465 20.88507 11198 ft 275 kts 335°
2026-04-30 22:53 51.89862 20.85679 10685 ft 273 kts 335°
2026-04-30 22:53 51.93208 20.82892 10153 ft 267 kts 335°
2026-04-30 22:53 51.94849 20.81525 9888 ft 263 kts 335°
2026-04-30 22:54 51.98259 20.81092 9416 ft 247 kts 22°
2026-04-30 22:55 52.01535 20.87130 8725 ft 240 kts 60°
2026-04-30 22:55 52.01950 20.92339 8293 ft 244 kts 108°
2026-04-30 22:56 51.99601 20.96239 7857 ft 249 kts 149°
2026-04-30 22:56 51.95013 21.00183 7165 ft 249 kts 150°
2026-04-30 22:57 51.91968 21.02831 6703 ft 247 kts 150°
2026-04-30 22:57 51.89063 21.05686 5995 ft 250 kts 127°
2026-04-30 22:58 51.88498 21.10842 5454 ft 237 kts 69°
2026-04-30 22:59 51.91136 21.16787 4806 ft 206 kts 20°
2026-04-30 22:59 51.94949 21.15635 4278 ft 187 kts 335°